EZY82WL LFMN-EGKK

Flight info

Callsign EZY82WL
Flight time 1h 33m
Altitude 34000
Route BADOD DCT NEDRU DCT LTP DCT BULOL DCT IDAVO DCT BAGBI DCT SIZZA/N0448F380 DCT LAULY DCT BRY DCT CLM DCT KOPOR DCT KESAX DCT KUNAV
Aircraft A320/M-SDE3FGHIRWY/LB1

Departure

Time 2026-05-07 19:41
Airport Nice-Côte d'Azur Airport (LFMN)

Arrival

Time 2026-05-07 21:15
Airport London Gatwick Airport (EGKK)
Time Latitude Longitude Altitude Speed Heading
2026-05-07 19:18 43.65869 7.20620 22 ft 0 kts 317°
2026-05-07 19:29 43.65860 7.20631 23 ft 4 kts 312°
2026-05-07 19:29 43.65844 7.20661 25 ft 4 kts 296°
2026-05-07 19:29 43.65835 7.20695 23 ft 4 kts 275°
2026-05-07 19:30 43.65837 7.20731 24 ft 4 kts 245°
2026-05-07 19:30 43.65844 7.20748 26 ft 0 kts 224°
2026-05-07 19:33 43.65806 7.20697 22 ft 12 kts 225°
2026-05-07 19:33 43.65753 7.20623 22 ft 10 kts 224°
2026-05-07 19:33 43.65722 7.20582 22 ft 9 kts 224°
2026-05-07 19:34 43.65682 7.20526 22 ft 7 kts 224°
2026-05-07 19:34 43.65649 7.20481 22 ft 6 kts 225°
2026-05-07 19:34 43.65617 7.20436 22 ft 6 kts 225°
2026-05-07 19:34 43.65574 7.20377 22 ft 12 kts 225°
2026-05-07 19:35 43.65520 7.20302 22 ft 11 kts 225°
2026-05-07 19:35 43.65460 7.20221 22 ft 12 kts 224°
2026-05-07 19:35 43.65397 7.20173 22 ft 10 kts 184°
2026-05-07 19:35 43.65340 7.20205 22 ft 9 kts 144°
2026-05-07 19:36 43.65301 7.20260 22 ft 8 kts 135°
2026-05-07 19:36 43.65268 7.20304 22 ft 6 kts 136°
2026-05-07 19:36 43.65230 7.20355 22 ft 9 kts 134°
2026-05-07 19:36 43.65185 7.20418 22 ft 9 kts 134°
2026-05-07 19:37 43.65144 7.20473 22 ft 9 kts 139°
2026-05-07 19:37 43.65068 7.20510 22 ft 12 kts 179°
2026-05-07 19:37 43.64996 7.20468 23 ft 10 kts 223°
2026-05-07 19:37 43.64937 7.20388 22 ft 13 kts 225°
2026-05-07 19:38 43.64876 7.20303 22 ft 12 kts 224°
2026-05-07 19:38 43.64822 7.20230 22 ft 10 kts 225°
2026-05-07 19:38 43.64775 7.20179 22 ft 6 kts 198°
2026-05-07 19:38 43.64751 7.20180 22 ft 0 kts 167°
2026-05-07 19:40 43.64741 7.20186 22 ft 8 kts 156°
2026-05-07 19:40 43.64704 7.20251 22 ft 8 kts 98°
2026-05-07 19:40 43.64733 7.20331 22 ft 20 kts 45°
2026-05-07 19:41 43.65026 7.20732 22 ft 94 kts 44°
2026-05-07 19:41 43.65630 7.21564 27 ft 148 kts 45°
2026-05-07 19:41 43.66438 7.22671 363 ft 166 kts 49°
2026-05-07 19:41 43.66838 7.24111 979 ft 169 kts 97°
2026-05-07 19:42 43.66324 7.25595 1451 ft 184 kts 134°
2026-05-07 19:42 43.65311 7.26803 1851 ft 202 kts 138°
2026-05-07 19:42 43.64235 7.28182 2282 ft 215 kts 136°
2026-05-07 19:42 43.63149 7.29641 2916 ft 220 kts 135°
2026-05-07 19:43 43.62032 7.31095 3726 ft 222 kts 144°
2026-05-07 19:43 43.60587 7.31777 4495 ft 224 kts 182°
2026-05-07 19:43 43.59128 7.31144 5263 ft 226 kts 211°
2026-05-07 19:43 43.57779 7.29996 6054 ft 228 kts 212°
2026-05-07 19:44 43.56422 7.28818 6809 ft 232 kts 213°
2026-05-07 19:44 43.55272 7.27259 7509 ft 236 kts 241°
2026-05-07 19:44 43.54835 7.25091 8230 ft 239 kts 271°
2026-05-07 19:44 43.55269 7.22884 8965 ft 242 kts 302°
2026-05-07 19:45 43.56274 7.21029 9725 ft 245 kts 309°
2026-05-07 19:45 43.57337 7.19182 10441 ft 248 kts 308°
2026-05-07 19:45 43.58419 7.17305 11149 ft 250 kts 308°
2026-05-07 19:45 43.59506 7.15409 11875 ft 253 kts 307°
2026-05-07 19:46 43.60602 7.13488 12605 ft 255 kts 308°
2026-05-07 19:46 43.61888 7.11739 13168 ft 269 kts 319°
2026-05-07 19:46 43.63389 7.10017 13425 ft 292 kts 319°
2026-05-07 19:46 43.64996 7.08190 13648 ft 315 kts 319°
2026-05-07 19:47 43.66754 7.06196 13818 ft 338 kts 319°
2026-05-07 19:47 43.68625 7.04072 14084 ft 355 kts 319°
2026-05-07 19:47 43.70551 7.01882 14659 ft 360 kts 319°
2026-05-07 19:47 43.72499 6.99662 15309 ft 364 kts 319°
2026-05-07 19:48 43.74465 6.97415 15974 ft 367 kts 319°
2026-05-07 19:48 43.76448 6.95148 16652 ft 371 kts 319°
2026-05-07 19:48 43.78416 6.92891 17317 ft 374 kts 319°
2026-05-07 19:48 43.80429 6.90579 17974 ft 377 kts 319°
2026-05-07 19:49 43.82463 6.88239 18581 ft 381 kts 318°
2026-05-07 19:49 43.84506 6.85880 19134 ft 383 kts 318°
2026-05-07 19:49 43.86568 6.83500 19685 ft 385 kts 318°
2026-05-07 19:49 43.88610 6.81146 20222 ft 388 kts 317°
2026-05-07 19:50 43.90700 6.78732 20766 ft 390 kts 317°
2026-05-07 19:50 43.92791 6.76317 21291 ft 392 kts 317°
2026-05-07 19:50 43.95014 6.74075 21809 ft 398 kts 326°
2026-05-07 19:50 43.97427 6.72148 22316 ft 401 kts 327°
2026-05-07 19:51 43.99856 6.70208 22835 ft 403 kts 327°
2026-05-07 19:51 44.02298 6.68251 23346 ft 405 kts 326°
2026-05-07 19:51 44.04718 6.66303 23797 ft 408 kts 326°
2026-05-07 19:51 44.07182 6.64312 24212 ft 410 kts 326°
2026-05-07 19:52 44.09666 6.62309 24631 ft 412 kts 326°
2026-05-07 19:52 44.12152 6.60310 25061 ft 414 kts 326°
2026-05-07 19:52 44.14658 6.58291 25446 ft 415 kts 325°
2026-05-07 19:52 44.17168 6.56265 25828 ft 417 kts 325°
2026-05-07 19:53 44.19663 6.54250 26201 ft 419 kts 325°
2026-05-07 19:53 44.22193 6.52203 26570 ft 421 kts 325°
2026-05-07 19:53 44.24742 6.50142 26971 ft 423 kts 325°
2026-05-07 19:53 44.27302 6.48068 27369 ft 425 kts 325°
2026-05-07 19:54 44.29837 6.46009 27760 ft 427 kts 325°
2026-05-07 19:54 44.32416 6.43915 28170 ft 429 kts 325°
2026-05-07 19:54 44.35016 6.41806 28550 ft 431 kts 324°
2026-05-07 19:54 44.37624 6.39688 28925 ft 434 kts 324°
2026-05-07 19:55 44.40240 6.37558 29293 ft 436 kts 324°
2026-05-07 19:55 44.42871 6.35412 29639 ft 438 kts 324°
2026-05-07 19:55 44.45516 6.33254 29946 ft 440 kts 324°
2026-05-07 19:55 44.48141 6.31110 30221 ft 442 kts 324°
2026-05-07 19:56 44.50811 6.28925 30498 ft 444 kts 324°
2026-05-07 19:56 44.53492 6.26732 30766 ft 445 kts 324°
2026-05-07 19:56 44.56172 6.24533 31020 ft 446 kts 324°
2026-05-07 19:56 44.58823 6.22356 31392 ft 445 kts 323°
2026-05-07 19:57 44.61499 6.20160 31786 ft 443 kts 323°
2026-05-07 19:57 44.64170 6.17966 32162 ft 442 kts 323°
2026-05-07 19:57 44.66822 6.15782 32539 ft 441 kts 322°
2026-05-07 19:57 44.69467 6.13601 32919 ft 440 kts 322°
2026-05-07 19:58 44.72081 6.11444 33312 ft 439 kts 322°
2026-05-07 19:58 44.74720 6.09271 33698 ft 438 kts 322°
2026-05-07 19:58 44.77350 6.07099 33967 ft 438 kts 322°
2026-05-07 19:58 44.79970 6.04932 34025 ft 434 kts 322°
2026-05-07 19:59 44.85133 6.00652 34027 ft 432 kts 322°
2026-05-07 19:59 44.90321 5.96336 34017 ft 432 kts 323°
2026-05-07 20:00 44.95479 5.92037 34019 ft 433 kts 323°
2026-05-07 20:00 45.00673 5.87701 34026 ft 433 kts 323°
2026-05-07 20:01 45.05867 5.83360 34019 ft 433 kts 323°
2026-05-07 20:01 45.11025 5.78920 34018 ft 432 kts 322°
2026-05-07 20:02 45.16034 5.74299 34020 ft 432 kts 321°
2026-05-07 20:02 45.21067 5.69602 34014 ft 432 kts 321°
2026-05-07 20:03 45.26078 5.64966 34006 ft 432 kts 322°
2026-05-07 20:03 45.31139 5.60318 34013 ft 432 kts 322°
2026-05-07 20:04 45.36170 5.55695 34010 ft 432 kts 322°
2026-05-07 20:04 45.41239 5.51028 34004 ft 433 kts 322°
2026-05-07 20:05 45.46306 5.46341 34000 ft 433 kts 322°
2026-05-07 20:05 45.51591 5.42247 33998 ft 439 kts 332°
2026-05-07 20:06 45.57214 5.38782 33998 ft 439 kts 332°
2026-05-07 20:06 45.62839 5.35300 33999 ft 439 kts 332°
2026-05-07 20:07 45.68408 5.31837 33997 ft 439 kts 332°
2026-05-07 20:07 45.74022 5.28336 33998 ft 440 kts 332°
2026-05-07 20:08 45.79642 5.24834 34005 ft 440 kts 332°
2026-05-07 20:08 45.85267 5.21325 34007 ft 440 kts 332°
2026-05-07 20:09 45.90888 5.17803 34010 ft 440 kts 332°
2026-05-07 20:10 45.99281 5.12516 34016 ft 440 kts 332°
2026-05-07 20:10 46.04894 5.08959 34019 ft 440 kts 332°
2026-05-07 20:11 46.09552 5.06014 34024 ft 439 kts 332°
2026-05-07 20:11 46.16069 5.01872 34019 ft 439 kts 332°
2026-05-07 20:12 46.20720 4.98908 34017 ft 439 kts 332°
2026-05-07 20:12 46.26303 4.95296 34016 ft 438 kts 330°
2026-05-07 20:13 46.31764 4.91379 34019 ft 437 kts 328°
2026-05-07 20:13 46.37143 4.87357 34023 ft 437 kts 328°
2026-05-07 20:14 46.42562 4.83342 34019 ft 436 kts 329°
2026-05-07 20:14 46.47997 4.79373 34024 ft 436 kts 329°
2026-05-07 20:15 46.53393 4.75439 34028 ft 436 kts 329°
2026-05-07 20:15 46.58827 4.71461 34033 ft 436 kts 329°
2026-05-07 20:16 46.64242 4.67471 34034 ft 435 kts 329°
2026-05-07 20:16 46.69642 4.63479 34031 ft 435 kts 328°
2026-05-07 20:17 46.75022 4.59503 34032 ft 435 kts 328°
2026-05-07 20:17 46.80418 4.55505 34036 ft 434 kts 328°
2026-05-07 20:18 46.85812 4.51497 34044 ft 434 kts 328°
2026-05-07 20:18 46.91171 4.47511 34048 ft 434 kts 328°
2026-05-07 20:19 46.96558 4.43493 34045 ft 434 kts 328°
2026-05-07 20:19 47.01944 4.39467 34042 ft 434 kts 328°
2026-05-07 20:20 47.07296 4.35455 34041 ft 434 kts 328°
2026-05-07 20:20 47.12678 4.31417 34050 ft 434 kts 328°
2026-05-07 20:21 47.18060 4.27371 34054 ft 433 kts 328°
2026-05-07 20:21 47.23435 4.23311 34053 ft 433 kts 328°
2026-05-07 20:22 47.28761 4.19277 34061 ft 433 kts 328°
2026-05-07 20:22 47.34129 4.15211 34061 ft 433 kts 328°
2026-05-07 20:23 47.39488 4.11138 34055 ft 432 kts 328°
2026-05-07 20:23 47.44813 4.07079 34054 ft 432 kts 328°
2026-05-07 20:24 47.50170 4.02989 34057 ft 432 kts 328°
2026-05-07 20:24 47.55527 3.98901 34053 ft 432 kts 328°
2026-05-07 20:25 47.60843 3.94831 34048 ft 431 kts 328°
2026-05-07 20:25 47.66189 3.90728 34047 ft 431 kts 328°
2026-05-07 20:26 47.71494 3.86632 34044 ft 431 kts 328°
2026-05-07 20:26 47.76829 3.82501 34049 ft 432 kts 328°
2026-05-07 20:27 47.82182 3.78367 34046 ft 432 kts 328°
2026-05-07 20:27 47.87488 3.74266 34045 ft 432 kts 328°
2026-05-07 20:28 47.92823 3.70113 34053 ft 432 kts 328°
2026-05-07 20:28 47.98115 3.65982 34044 ft 431 kts 328°
2026-05-07 20:29 48.03442 3.61816 34050 ft 431 kts 328°
2026-05-07 20:29 48.08770 3.57641 34047 ft 431 kts 328°
2026-05-07 20:30 48.14061 3.53485 34043 ft 431 kts 328°
2026-05-07 20:30 48.19373 3.49303 34037 ft 431 kts 328°
2026-05-07 20:31 48.24710 3.45101 34032 ft 431 kts 328°
2026-05-07 20:31 48.30037 3.40902 34036 ft 432 kts 328°
2026-05-07 20:32 48.35325 3.36714 34040 ft 432 kts 328°
2026-05-07 20:32 48.40652 3.32482 34040 ft 432 kts 328°
2026-05-07 20:33 48.45990 3.28228 34043 ft 433 kts 328°
2026-05-07 20:33 48.51287 3.23995 34044 ft 433 kts 328°
2026-05-07 20:34 48.56632 3.19721 34047 ft 434 kts 328°
2026-05-07 20:34 48.61968 3.15447 34051 ft 434 kts 328°
2026-05-07 20:35 48.67306 3.11156 34048 ft 434 kts 328°
2026-05-07 20:35 48.72642 3.06856 34048 ft 434 kts 328°
2026-05-07 20:36 48.77942 3.02577 34048 ft 434 kts 328°
2026-05-07 20:36 48.83281 2.98259 34050 ft 434 kts 328°
2026-05-07 20:37 48.88064 2.94382 34057 ft 434 kts 328°
2026-05-07 20:37 48.93347 2.90081 34062 ft 434 kts 328°
2026-05-07 20:38 48.98683 2.85731 34064 ft 435 kts 328°
2026-05-07 20:38 49.04012 2.81373 34067 ft 435 kts 328°
2026-05-07 20:39 49.09348 2.76997 34068 ft 435 kts 328°
2026-05-07 20:39 49.14653 2.72640 34066 ft 435 kts 328°
2026-05-07 20:40 49.20006 2.68236 34063 ft 435 kts 328°
2026-05-07 20:40 49.25315 2.63857 34057 ft 435 kts 328°
2026-05-07 20:41 49.30662 2.59424 34060 ft 436 kts 328°
2026-05-07 20:41 49.35930 2.55058 34069 ft 426 kts 328°
2026-05-07 20:42 49.41123 2.50747 34070 ft 422 kts 328°
2026-05-07 20:42 49.46294 2.46438 34074 ft 422 kts 328°
2026-05-07 20:43 49.51366 2.42007 34075 ft 415 kts 322°
2026-05-07 20:43 49.55750 2.36425 34077 ft 406 kts 316°
2026-05-07 20:44 49.60030 2.30743 34080 ft 406 kts 316°
2026-05-07 20:44 49.64312 2.25057 34075 ft 405 kts 316°
2026-05-07 20:45 49.68588 2.19355 34075 ft 405 kts 316°
2026-05-07 20:45 49.72829 2.13687 34068 ft 405 kts 316°
2026-05-07 20:46 49.77095 2.07966 34071 ft 405 kts 316°
2026-05-07 20:46 49.81368 2.02228 34070 ft 405 kts 316°
2026-05-07 20:47 49.85615 1.96523 34067 ft 406 kts 316°
2026-05-07 20:47 49.89880 1.90771 34069 ft 406 kts 316°
2026-05-07 20:48 49.94141 1.85017 34070 ft 406 kts 316°
2026-05-07 20:48 49.98382 1.79267 34073 ft 406 kts 316°
2026-05-07 20:49 50.02636 1.73472 34074 ft 406 kts 316°
2026-05-07 20:49 50.06891 1.67665 33908 ft 409 kts 316°
2026-05-07 20:49 50.09065 1.64702 32754 ft 422 kts 316°
2026-05-07 20:50 50.10540 1.62701 31953 ft 424 kts 316°
2026-05-07 20:50 50.12769 1.59688 30800 ft 424 kts 316°
2026-05-07 20:50 50.14996 1.56679 29614 ft 423 kts 316°
2026-05-07 20:50 50.17224 1.53657 28343 ft 421 kts 316°
2026-05-07 20:51 50.19403 1.50693 27711 ft 409 kts 316°
2026-05-07 20:51 50.21507 1.47831 27222 ft 403 kts 316°
2026-05-07 20:51 50.23609 1.44967 26727 ft 398 kts 316°
2026-05-07 20:51 50.25690 1.42124 26238 ft 395 kts 316°
2026-05-07 20:52 50.27759 1.39291 25767 ft 394 kts 316°
2026-05-07 20:52 50.29813 1.36477 25306 ft 390 kts 316°
2026-05-07 20:52 50.31849 1.33683 24833 ft 387 kts 316°
2026-05-07 20:52 50.33867 1.30910 24385 ft 384 kts 316°
2026-05-07 20:53 50.35843 1.28188 23945 ft 381 kts 316°
2026-05-07 20:53 50.37834 1.25446 23460 ft 378 kts 316°
2026-05-07 20:53 50.39807 1.22730 22995 ft 376 kts 316°
2026-05-07 20:53 50.41767 1.20034 22561 ft 373 kts 316°
2026-05-07 20:54 50.43714 1.17355 22121 ft 371 kts 316°
2026-05-07 20:54 50.45642 1.14691 21672 ft 368 kts 316°
2026-05-07 20:54 50.47552 1.12041 21219 ft 364 kts 316°
2026-05-07 20:54 50.49443 1.09411 20785 ft 362 kts 316°
2026-05-07 20:55 50.51319 1.06788 20339 ft 359 kts 314°
2026-05-07 20:55 50.53020 1.04000 19898 ft 356 kts 310°
2026-05-07 20:55 50.54705 1.01161 19447 ft 354 kts 311°
2026-05-07 20:55 50.56384 0.98332 19007 ft 352 kts 311°
2026-05-07 20:56 50.58057 0.95513 18564 ft 351 kts 311°
2026-05-07 20:56 50.59720 0.92709 18089 ft 349 kts 311°
2026-05-07 20:56 50.61377 0.89916 17641 ft 346 kts 311°
2026-05-07 20:56 50.63014 0.87152 17224 ft 344 kts 311°
2026-05-07 20:57 50.64624 0.84426 16802 ft 342 kts 311°
2026-05-07 20:57 50.66242 0.81679 16392 ft 340 kts 311°
2026-05-07 20:57 50.67841 0.78930 15962 ft 339 kts 309°
2026-05-07 20:57 50.69385 0.76071 15333 ft 343 kts 307°
2026-05-07 20:58 50.70870 0.73162 15082 ft 336 kts 307°
2026-05-07 20:58 50.72293 0.70317 14741 ft 332 kts 306°
2026-05-07 20:58 50.73719 0.67455 14355 ft 331 kts 306°
2026-05-07 20:58 50.75144 0.64603 13978 ft 329 kts 306°
2026-05-07 20:59 50.76570 0.61767 13555 ft 328 kts 307°
2026-05-07 20:59 50.77995 0.58952 13151 ft 325 kts 307°
2026-05-07 20:59 50.79392 0.56201 12758 ft 323 kts 307°
2026-05-07 20:59 50.80795 0.53443 12362 ft 320 kts 307°
2026-05-07 21:00 50.82187 0.50706 11979 ft 318 kts 307°
2026-05-07 21:00 50.83565 0.47989 11593 ft 315 kts 307°
2026-05-07 21:00 50.84935 0.45284 11245 ft 313 kts 307°
2026-05-07 21:00 50.86199 0.42507 10837 ft 309 kts 295°
2026-05-07 21:01 50.86865 0.39309 10450 ft 304 kts 282°
2026-05-07 21:01 50.87337 0.36056 10079 ft 302 kts 281°
2026-05-07 21:01 50.87788 0.32807 9699 ft 300 kts 281°
2026-05-07 21:01 50.88224 0.29621 9282 ft 298 kts 281°
2026-05-07 21:02 50.88661 0.26404 8848 ft 297 kts 281°
2026-05-07 21:02 50.89093 0.23203 8434 ft 296 kts 281°
2026-05-07 21:02 50.89520 0.20016 8066 ft 294 kts 281°
2026-05-07 21:02 50.89939 0.16877 7717 ft 294 kts 281°
2026-05-07 21:03 50.90360 0.13712 7391 ft 293 kts 281°
2026-05-07 21:03 50.90776 0.10562 7107 ft 290 kts 281°
2026-05-07 21:03 50.91187 0.07427 7073 ft 291 kts 281°
2026-05-07 21:03 50.91600 0.04275 7082 ft 292 kts 281°
2026-05-07 21:04 50.92011 0.01126 7086 ft 292 kts 281°
2026-05-07 21:04 50.92424 -0.02037 7082 ft 292 kts 281°
2026-05-07 21:04 50.92836 -0.05201 7085 ft 292 kts 281°
2026-05-07 21:04 50.93242 -0.08323 7084 ft 292 kts 281°
2026-05-07 21:05 50.93652 -0.11477 7080 ft 292 kts 281°
2026-05-07 21:05 50.94062 -0.14643 7081 ft 292 kts 281°
2026-05-07 21:05 50.94472 -0.17810 7078 ft 293 kts 281°
2026-05-07 21:05 50.94880 -0.20972 7084 ft 293 kts 282°
2026-05-07 21:06 50.95287 -0.24136 7080 ft 293 kts 281°
2026-05-07 21:06 50.95692 -0.27299 7076 ft 292 kts 281°
2026-05-07 21:06 50.96088 -0.30391 7080 ft 277 kts 281°
2026-05-07 21:06 50.96460 -0.33308 6817 ft 272 kts 281°
2026-05-07 21:07 50.96832 -0.36242 6412 ft 268 kts 281°
2026-05-07 21:07 50.97190 -0.39091 5997 ft 257 kts 281°
2026-05-07 21:07 50.97535 -0.41824 5570 ft 249 kts 281°
2026-05-07 21:07 50.97881 -0.44473 5165 ft 242 kts 285°
2026-05-07 21:08 50.98673 -0.46753 4749 ft 236 kts 317°
2026-05-07 21:08 51.00088 -0.48016 4330 ft 234 kts 346°
2026-05-07 21:08 51.01662 -0.48584 3916 ft 234 kts 351°
2026-05-07 21:08 51.03259 -0.49062 3494 ft 232 kts 351°
2026-05-07 21:09 51.04837 -0.49527 3269 ft 227 kts 351°
2026-05-07 21:09 51.06395 -0.49989 3098 ft 228 kts 351°
2026-05-07 21:09 51.07936 -0.50444 2991 ft 221 kts 351°
2026-05-07 21:09 51.09391 -0.50783 2999 ft 208 kts
2026-05-07 21:10 51.10571 -0.50011 3015 ft 190 kts 49°
2026-05-07 21:10 51.11004 -0.48150 3019 ft 180 kts 93°
2026-05-07 21:10 51.11014 -0.46226 3001 ft 168 kts 80°
2026-05-07 21:10 51.11267 -0.44439 2998 ft 163 kts 78°
2026-05-07 21:11 51.11517 -0.42676 2961 ft 163 kts 79°
2026-05-07 21:11 51.11767 -0.40903 2788 ft 164 kts 78°
2026-05-07 21:11 51.12268 -0.37329 2386 ft 168 kts 79°
2026-05-07 21:12 51.12525 -0.35493 2131 ft 176 kts 79°
2026-05-07 21:12 51.12789 -0.33608 1898 ft 173 kts 79°
2026-05-07 21:12 51.13046 -0.31764 1665 ft 167 kts 79°
2026-05-07 21:12 51.13293 -0.29991 1454 ft 159 kts 79°
2026-05-07 21:13 51.13524 -0.28344 1216 ft 145 kts 79°
2026-05-07 21:13 51.13737 -0.26809 1011 ft 139 kts 79°
2026-05-07 21:13 51.13943 -0.25322 823 ft 136 kts 79°
2026-05-07 21:13 51.14149 -0.23847 639 ft 136 kts 78°
2026-05-07 21:14 51.14348 -0.22399 453 ft 135 kts 79°
2026-05-07 21:14 51.14549 -0.20943 294 ft 134 kts 78°
2026-05-07 21:14 51.14743 -0.19535 212 ft 117 kts 77°
2026-05-07 21:14 51.14882 -0.18537 205 ft 67 kts 78°
2026-05-07 21:15 51.14951 -0.18075 212 ft 24 kts 68°
2026-05-07 21:15 51.15016 -0.17883 208 ft 11 kts 55°
2026-05-07 21:15 51.15059 -0.17793 216 ft 8 kts 52°
2026-05-07 21:15 51.15092 -0.17755 207 ft 5 kts 11°
2026-05-07 21:16 51.15124 -0.17760 207 ft 4 kts 351°
2026-05-07 21:16 51.15151 -0.17767 207 ft 10 kts 351°
2026-05-07 21:16 51.15234 -0.17774 209 ft 12 kts 20°
2026-05-07 21:16 51.15269 -0.17676 205 ft 10 kts 76°
2026-05-07 21:17 51.15285 -0.17561 205 ft 11 kts 77°
2026-05-07 21:17 51.15298 -0.17445 207 ft 11 kts 80°
2026-05-07 21:17 51.15340 -0.17372 207 ft 9 kts
2026-05-07 21:17 51.15399 -0.17387 214 ft 8 kts 348°
2026-05-07 21:18 51.15449 -0.17405 210 ft 7 kts 347°
2026-05-07 21:18 51.15493 -0.17421 205 ft 6 kts 347°
2026-05-07 21:18 51.15529 -0.17443 210 ft 5 kts 321°
2026-05-07 21:18 51.15539 -0.17489 209 ft 4 kts 270°
2026-05-07 21:19 51.15535 -0.17530 209 ft 3 kts 259°
2026-05-07 21:19 51.15530 -0.17563 215 ft 3 kts 258°
2026-05-07 21:19 51.15526 -0.17592 209 ft 4 kts 258°
2026-05-07 21:19 51.15520 -0.17632 211 ft 4 kts 257°
2026-05-07 21:20 51.15522 -0.17664 213 ft 2 kts 300°
2026-05-07 21:20 51.15532 -0.17667 208 ft 2 kts 352°
2026-05-07 21:20 51.15549 -0.17671 205 ft 2 kts 349°
2026-05-07 21:20 51.15564 -0.17676 204 ft 2 kts 349°
2026-05-07 21:21 51.15576 -0.17680 216 ft 2 kts 348°
2026-05-07 21:21 51.15588 -0.17684 214 ft 0 kts 348°